STARLINK-1556 (46033 NORAD) Tracking and Keplerian Element Data

This shows tracking and keplerian element data for the satellite.

Feedback or suggestion? Click here.




ElementValue
Catalog46033
NameSTARLINK-1556
Epoch Orbit1800
Epoch Day330.89662014
Epoch Year2020
RAAN149.7939
Inclination53.0015
Eccentricity0.0002417
Argument of Perigee83.9083
Mean Anonmoly276.218
Mean Motion15.05594085
Decay Rate3.2E-06
L11 46033U 20055G 20330.89662014 .00000320 00000-0 41132-4 0 9992
L22 46033 53.0015 149.7939 0002417 83.9083 276.2180 15.05594085 18006

Live tracking and technical data element details for STARLINK-1556 (NORAD 46033). STARLINK-1556 can be tracked NOW for your location showing map with azimuth and elevation plus other details from your city location.

Track the satellite on the map from your city or location and see movement details for azimuth, elevation, latitude, longitude, range, height, and movement on the map or in text.







IsCatalogInMostPopularTable: catalog: 46033, numindb: 24
Update: records affected: 1



GetName: 46033 STARLINK-1556

Hit Count: updated at: Thu, 26 Nov 2020 23:44:58 GMT